AAL1456 KDFW-KSLC

Flight info

Callsign AAL1456
Flight time 2h 21m
Altitude 34000
Route HUDAD2 HUDAD PNH ALS JNC J12 HELPR JAZZZ1
Aircraft A321/M-SDE3FGHIRWY/LB1

Departure

Time 2026-05-06 22:15
Airport Dallas Fort Worth International Airport (KDFW)

Arrival

Time 2026-05-07 00:37
Airport Salt Lake City International Airport (KSLC)
Time Latitude Longitude Altitude Speed Heading
2026-05-06 21:51 32.90396 -97.04570 596 ft 0 kts 79°
2026-05-06 22:03 32.90396 -97.04575 596 ft 3 kts 79°
2026-05-06 22:03 32.90391 -97.04602 596 ft 2 kts 79°
2026-05-06 22:04 32.90391 -97.04626 596 ft 4 kts 137°
2026-05-06 22:04 32.90412 -97.04634 596 ft 4 kts 180°
2026-05-06 22:04 32.90430 -97.04634 596 ft 0 kts 180°
2026-05-06 22:06 32.90425 -97.04634 596 ft 3 kts 180°
2026-05-06 22:07 32.90384 -97.04666 596 ft 11 kts 236°
2026-05-06 22:07 32.90341 -97.04758 597 ft 14 kts 249°
2026-05-06 22:07 32.90332 -97.04852 599 ft 9 kts 262°
2026-05-06 22:07 32.90290 -97.04885 599 ft 9 kts 188°
2026-05-06 22:08 32.90199 -97.04884 599 ft 17 kts 180°
2026-05-06 22:08 32.90068 -97.04883 599 ft 19 kts 180°
2026-05-06 22:08 32.89950 -97.04885 600 ft 15 kts 181°
2026-05-06 22:08 32.89858 -97.04887 601 ft 12 kts 180°
2026-05-06 22:09 32.89758 -97.04887 601 ft 17 kts 179°
2026-05-06 22:09 32.89630 -97.04888 599 ft 19 kts 180°
2026-05-06 22:09 32.89507 -97.04888 598 ft 16 kts 180°
2026-05-06 22:09 32.89402 -97.04889 598 ft 14 kts 181°
2026-05-06 22:10 32.89308 -97.04889 595 ft 15 kts 180°
2026-05-06 22:10 32.89186 -97.04889 592 ft 19 kts 171°
2026-05-06 22:10 32.89057 -97.04889 591 ft 17 kts 181°
2026-05-06 22:10 32.88941 -97.04890 590 ft 17 kts 180°
2026-05-06 22:11 32.88821 -97.04891 587 ft 18 kts 180°
2026-05-06 22:11 32.88698 -97.04892 588 ft 17 kts 180°
2026-05-06 22:11 32.88590 -97.04888 589 ft 14 kts 178°
2026-05-06 22:11 32.88502 -97.04889 589 ft 13 kts 181°
2026-05-06 22:12 32.88397 -97.04893 589 ft 17 kts 181°
2026-05-06 22:12 32.88283 -97.04894 589 ft 16 kts 180°
2026-05-06 22:12 32.88173 -97.04894 590 ft 16 kts 181°
2026-05-06 22:12 32.88058 -97.04895 588 ft 17 kts 180°
2026-05-06 22:13 32.87950 -97.04896 586 ft 11 kts 180°
2026-05-06 22:13 32.87912 -97.04921 585 ft 6 kts 254°
2026-05-06 22:13 32.87911 -97.04954 585 ft 0 kts 270°
2026-05-06 22:13 32.87911 -97.04972 585 ft 7 kts 272°
2026-05-06 22:14 32.87912 -97.05053 586 ft 9 kts 270°
2026-05-06 22:14 32.87925 -97.05091 587 ft 3 kts 345°
2026-05-06 22:14 32.87938 -97.05091 588 ft 0 kts
2026-05-06 22:14 32.87946 -97.05091 588 ft 9 kts
2026-05-06 22:15 32.88254 -97.05089 591 ft 77 kts
2026-05-06 22:15 32.88998 -97.05085 589 ft 134 kts
2026-05-06 22:15 32.90076 -97.05080 646 ft 171 kts
2026-05-06 22:15 32.91216 -97.05104 1413 ft 158 kts 358°
2026-05-06 22:16 32.92306 -97.05142 2012 ft 161 kts 360°
2026-05-06 22:16 32.93484 -97.05181 2289 ft 178 kts 359°
2026-05-06 22:16 32.94776 -97.05206 2503 ft 193 kts
2026-05-06 22:16 32.96192 -97.05226 2670 ft 215 kts
2026-05-06 22:17 32.97764 -97.05245 2821 ft 239 kts
2026-05-06 22:17 32.99448 -97.05259 3485 ft 242 kts
2026-05-06 22:17 33.01143 -97.05271 4178 ft 247 kts 359°
2026-05-06 22:17 33.02880 -97.05283 4808 ft 252 kts 356°
2026-05-06 22:18 33.04646 -97.05380 5402 ft 255 kts 345°
2026-05-06 22:18 33.06251 -97.06228 5996 ft 254 kts 318°
2026-05-06 22:18 33.07364 -97.07816 6469 ft 257 kts 292°
2026-05-06 22:18 33.07844 -97.09871 7026 ft 260 kts 279°
2026-05-06 22:19 33.08182 -97.12000 7661 ft 262 kts 278°
2026-05-06 22:19 33.08360 -97.14164 8285 ft 263 kts 266°
2026-05-06 22:19 33.08103 -97.16319 8951 ft 264 kts 258°
2026-05-06 22:19 33.07757 -97.18473 9599 ft 266 kts 257°
2026-05-06 22:20 33.07411 -97.20642 10250 ft 268 kts 257°
2026-05-06 22:20 33.07053 -97.22898 10446 ft 287 kts 258°
2026-05-06 22:20 33.06669 -97.25315 10567 ft 307 kts 257°
2026-05-06 22:20 33.06261 -97.27896 10703 ft 326 kts 258°
2026-05-06 22:21 33.05838 -97.30583 11137 ft 332 kts 258°
2026-05-06 22:21 33.05410 -97.33295 11745 ft 334 kts 258°
2026-05-06 22:21 33.04977 -97.36018 12391 ft 335 kts 257°
2026-05-06 22:21 33.04542 -97.38750 13041 ft 336 kts 257°
2026-05-06 22:22 33.04105 -97.41490 13698 ft 337 kts 257°
2026-05-06 22:22 33.03668 -97.44236 14279 ft 338 kts 257°
2026-05-06 22:22 33.03378 -97.46059 14683 ft 338 kts 257°
2026-05-06 22:22 33.02942 -97.48808 15304 ft 337 kts 257°
2026-05-06 22:23 33.02504 -97.51552 15892 ft 337 kts 257°
2026-05-06 22:23 33.02062 -97.54296 16509 ft 337 kts 256°
2026-05-06 22:23 33.01620 -97.57042 17114 ft 338 kts 256°
2026-05-06 22:23 33.01177 -97.59790 17711 ft 338 kts 256°
2026-05-06 22:24 33.00732 -97.62547 18274 ft 339 kts 256°
2026-05-06 22:24 33.00286 -97.65310 18754 ft 341 kts 256°
2026-05-06 22:24 32.99837 -97.68089 19229 ft 343 kts 256°
2026-05-06 22:24 32.99527 -97.70916 19665 ft 347 kts 264°
2026-05-06 22:25 32.99663 -97.73811 20108 ft 355 kts 273°
2026-05-06 22:25 33.00277 -97.76694 20538 ft 364 kts 283°
2026-05-06 22:25 33.01297 -97.79494 20970 ft 370 kts 286°
2026-05-06 22:25 33.02359 -97.82295 21439 ft 372 kts 286°
2026-05-06 22:26 33.03422 -97.85115 21885 ft 374 kts 286°
2026-05-06 22:26 33.04485 -97.87952 22287 ft 376 kts 286°
2026-05-06 22:26 33.05550 -97.90805 22743 ft 378 kts 286°
2026-05-06 22:26 33.06619 -97.93673 23128 ft 379 kts 286°
2026-05-06 22:27 33.07693 -97.96552 23507 ft 381 kts 286°
2026-05-06 22:27 33.08775 -97.99450 23840 ft 383 kts 286°
2026-05-06 22:27 33.09864 -98.02361 24154 ft 385 kts 286°
2026-05-06 22:27 33.10957 -98.05284 24474 ft 387 kts 285°
2026-05-06 22:28 33.12052 -98.08221 24806 ft 388 kts 285°
2026-05-06 22:28 33.13135 -98.11131 25117 ft 390 kts 285°
2026-05-06 22:28 33.14250 -98.14131 25429 ft 391 kts 285°
2026-05-06 22:28 33.15340 -98.17062 25728 ft 393 kts 285°
2026-05-06 22:29 33.16466 -98.20090 26045 ft 394 kts 285°
2026-05-06 22:29 33.17560 -98.23045 26324 ft 396 kts 285°
2026-05-06 22:29 33.18676 -98.26054 26609 ft 397 kts 285°
2026-05-06 22:29 33.19796 -98.29074 26882 ft 399 kts 284°
2026-05-06 22:30 33.20920 -98.32103 27171 ft 400 kts 284°
2026-05-06 22:30 33.22051 -98.35148 27474 ft 401 kts 284°
2026-05-06 22:30 33.23182 -98.38190 27851 ft 401 kts 284°
2026-05-06 22:30 33.24310 -98.41232 28169 ft 401 kts 284°
2026-05-06 22:31 33.25440 -98.44286 28473 ft 403 kts 284°
2026-05-06 22:31 33.26571 -98.47351 28743 ft 404 kts 284°
2026-05-06 22:31 33.27702 -98.50416 29113 ft 402 kts 283°
2026-05-06 22:31 33.28828 -98.53469 29521 ft 400 kts 283°
2026-05-06 22:32 33.29948 -98.56509 29919 ft 399 kts 283°
2026-05-06 22:32 33.31062 -98.59533 30267 ft 397 kts 283°
2026-05-06 22:32 33.32172 -98.62551 30603 ft 396 kts 283°
2026-05-06 22:32 33.33277 -98.65557 30903 ft 394 kts 283°
2026-05-06 22:33 33.34375 -98.68555 31215 ft 393 kts 283°
2026-05-06 22:33 33.35467 -98.71541 31528 ft 391 kts 282°
2026-05-06 22:33 33.36556 -98.74517 31849 ft 390 kts 282°
2026-05-06 22:33 33.37641 -98.77482 32197 ft 388 kts 282°
2026-05-06 22:34 33.38721 -98.80424 32583 ft 385 kts 282°
2026-05-06 22:34 33.39793 -98.83348 32913 ft 383 kts 282°
2026-05-06 22:34 33.40856 -98.86258 33219 ft 381 kts 282°
2026-05-06 22:34 33.41916 -98.89163 33505 ft 380 kts 282°
2026-05-06 22:35 33.42971 -98.92062 33775 ft 380 kts 281°
2026-05-06 22:35 33.44024 -98.94959 33966 ft 380 kts 281°
2026-05-06 22:35 33.46123 -99.00726 34011 ft 377 kts 281°
2026-05-06 22:36 33.48209 -99.06474 34012 ft 376 kts 281°
2026-05-06 22:36 33.50293 -99.12227 33998 ft 377 kts 281°
2026-05-06 22:37 33.52384 -99.17998 34004 ft 378 kts 281°
2026-05-06 22:37 33.54466 -99.23774 33998 ft 377 kts 281°
2026-05-06 22:38 33.56541 -99.29555 33993 ft 378 kts 281°
2026-05-06 22:38 33.58619 -99.35340 34001 ft 378 kts 281°
2026-05-06 22:39 33.60689 -99.41086 34030 ft 378 kts 283°
2026-05-06 22:39 33.62018 -99.43875 34028 ft 394 kts 292°
2026-05-06 22:39 33.63832 -99.46478 34029 ft 404 kts 297°
2026-05-06 22:40 33.67548 -99.51483 34023 ft 404 kts 297°
2026-05-06 22:40 33.71274 -99.56530 34019 ft 404 kts 297°
2026-05-06 22:41 33.76848 -99.64120 34018 ft 403 kts 297°
2026-05-06 22:42 33.80550 -99.69188 34019 ft 404 kts 297°
2026-05-06 22:42 33.84256 -99.74254 34041 ft 402 kts 297°
2026-05-06 22:43 33.87932 -99.79269 34021 ft 399 kts 296°
2026-05-06 22:43 33.91593 -99.84279 34040 ft 398 kts 297°
2026-05-06 22:44 33.95248 -99.89289 34041 ft 398 kts 296°
2026-05-06 22:44 33.98894 -99.94302 34036 ft 397 kts 296°
2026-05-06 22:45 34.02540 -99.99312 34040 ft 397 kts 296°
2026-05-06 22:45 34.06177 -100.04326 34039 ft 397 kts 296°
2026-05-06 22:46 34.09801 -100.09312 34041 ft 394 kts 296°
2026-05-06 22:46 34.13405 -100.14278 34045 ft 393 kts 296°
2026-05-06 22:47 34.16999 -100.19256 34043 ft 393 kts 296°
2026-05-06 22:47 34.20587 -100.24243 34069 ft 393 kts 296°
2026-05-06 22:48 34.24178 -100.29226 34072 ft 393 kts 296°
2026-05-06 22:48 34.27774 -100.34211 34051 ft 393 kts 296°
2026-05-06 22:49 34.31357 -100.39191 34057 ft 391 kts 296°
2026-05-06 22:49 34.34913 -100.44149 34058 ft 390 kts 296°
2026-05-06 22:50 34.38465 -100.49112 34043 ft 390 kts 296°
2026-05-06 22:50 34.42022 -100.54077 34055 ft 391 kts 296°
2026-05-06 22:51 34.45581 -100.59051 34052 ft 391 kts 296°
2026-05-06 22:51 34.49113 -100.63998 34058 ft 391 kts 296°
2026-05-06 22:52 34.52667 -100.68987 34106 ft 391 kts 296°
2026-05-06 22:52 34.56204 -100.73950 34051 ft 388 kts 296°
2026-05-06 22:53 34.59723 -100.78910 34051 ft 388 kts 296°
2026-05-06 22:53 34.63246 -100.83878 34051 ft 388 kts 296°
2026-05-06 22:54 34.66774 -100.88849 34046 ft 389 kts 296°
2026-05-06 22:54 34.70302 -100.93825 34048 ft 389 kts 296°
2026-05-06 22:55 34.73820 -100.98809 34048 ft 388 kts 296°
2026-05-06 22:55 34.77300 -101.03756 34052 ft 385 kts 295°
2026-05-06 22:56 34.80787 -101.08700 34034 ft 385 kts 295°
2026-05-06 22:56 34.84273 -101.13653 34040 ft 386 kts 295°
2026-05-06 22:57 34.87764 -101.18617 34038 ft 386 kts 295°
2026-05-06 22:57 34.91257 -101.23590 34038 ft 386 kts 295°
2026-05-06 22:58 34.94746 -101.28567 34049 ft 386 kts 295°
2026-05-06 22:58 34.98241 -101.33565 34063 ft 390 kts 296°
2026-05-06 22:59 35.01763 -101.38611 34046 ft 391 kts 296°
2026-05-06 22:59 35.05296 -101.43670 34046 ft 392 kts 296°
2026-05-06 23:00 35.08831 -101.48731 34042 ft 391 kts 296°
2026-05-06 23:00 35.12359 -101.53795 34052 ft 391 kts 296°
2026-05-06 23:01 35.15873 -101.58874 34101 ft 392 kts 296°
2026-05-06 23:01 35.19396 -101.63955 34175 ft 392 kts 296°
2026-05-06 23:02 35.22894 -101.68987 34103 ft 385 kts 295°
2026-05-06 23:02 35.24446 -101.71574 34096 ft 373 kts 290°
2026-05-06 23:02 35.25877 -101.74221 34092 ft 373 kts 290°
2026-05-06 23:03 35.28727 -101.79478 34089 ft 373 kts 290°
2026-05-06 23:03 35.31618 -101.84803 34085 ft 373 kts 290°
2026-05-06 23:04 35.34472 -101.90063 34075 ft 373 kts 290°
2026-05-06 23:04 35.37340 -101.95363 34079 ft 373 kts 290°
2026-05-06 23:05 35.40200 -102.00665 34070 ft 373 kts 290°
2026-05-06 23:05 35.43064 -102.05971 34077 ft 373 kts 290°
2026-05-06 23:06 35.45926 -102.11266 34074 ft 372 kts 290°
2026-05-06 23:06 35.48774 -102.16551 34076 ft 371 kts 290°
2026-05-06 23:07 35.51606 -102.21833 34067 ft 371 kts 290°
2026-05-06 23:07 35.54444 -102.27116 34064 ft 370 kts 290°
2026-05-06 23:08 35.57273 -102.32397 34061 ft 370 kts 290°
2026-05-06 23:08 35.60093 -102.37680 34049 ft 370 kts 290°
2026-05-06 23:09 35.62909 -102.42954 34074 ft 367 kts 290°
2026-05-06 23:09 35.65703 -102.48190 34036 ft 366 kts 289°
2026-05-06 23:10 35.68490 -102.53434 34033 ft 367 kts 289°
2026-05-06 23:10 35.71287 -102.58690 34045 ft 367 kts 289°
2026-05-06 23:11 35.73611 -102.63064 34040 ft 368 kts 289°
2026-05-06 23:11 35.76407 -102.68336 34042 ft 368 kts 289°
2026-05-06 23:12 35.79206 -102.73615 34057 ft 368 kts 289°
2026-05-06 23:12 35.81996 -102.78899 34114 ft 369 kts 290°
2026-05-06 23:13 35.84802 -102.84226 34042 ft 371 kts 290°
2026-05-06 23:13 35.87622 -102.89573 34060 ft 373 kts 290°
2026-05-06 23:14 35.90447 -102.94941 34052 ft 373 kts 290°
2026-05-06 23:14 35.93272 -103.00320 34051 ft 374 kts 290°
2026-05-06 23:15 35.96099 -103.05709 34069 ft 374 kts 290°
2026-05-06 23:15 35.98927 -103.11102 34068 ft 374 kts 290°
2026-05-06 23:16 36.01748 -103.16504 34070 ft 375 kts 290°
2026-05-06 23:16 36.04583 -103.21949 34060 ft 379 kts 292°
2026-05-06 23:17 36.07431 -103.27416 34050 ft 382 kts 292°
2026-05-06 23:17 36.10338 -103.33002 34071 ft 385 kts 292°
2026-05-06 23:18 36.13221 -103.38545 34073 ft 386 kts 292°
2026-05-06 23:18 36.16123 -103.44147 34081 ft 387 kts 292°
2026-05-06 23:19 36.19033 -103.49755 34110 ft 387 kts 292°
2026-05-06 23:19 36.21946 -103.55391 34133 ft 390 kts 294°
2026-05-06 23:20 36.24875 -103.61078 34095 ft 393 kts 294°
2026-05-06 23:20 36.27830 -103.66817 34123 ft 396 kts 294°
2026-05-06 23:21 36.30804 -103.72587 34126 ft 398 kts 294°
2026-05-06 23:21 36.33782 -103.78382 34151 ft 399 kts 294°
2026-05-06 23:22 36.36758 -103.84193 34178 ft 399 kts 294°
2026-05-06 23:22 36.39736 -103.90021 34154 ft 400 kts 295°
2026-05-06 23:23 36.42723 -103.95867 34192 ft 402 kts 297°
2026-05-06 23:23 36.45726 -104.01755 34176 ft 405 kts 297°
2026-05-06 23:24 36.48745 -104.07682 34171 ft 407 kts 297°
2026-05-06 23:24 36.51768 -104.13646 34193 ft 408 kts 297°
2026-05-06 23:25 36.53451 -104.16970 34194 ft 409 kts 297°
2026-05-06 23:25 36.55865 -104.23277 34169 ft 401 kts 282°
2026-05-06 23:26 36.56955 -104.30076 34168 ft 402 kts 278°
2026-05-06 23:26 36.58212 -104.36861 34153 ft 406 kts 285°
2026-05-06 23:27 36.60044 -104.43516 34169 ft 407 kts 286°
2026-05-06 23:27 36.61843 -104.50214 34148 ft 410 kts 290°
2026-05-06 23:28 36.64357 -104.56628 34149 ft 413 kts 294°
2026-05-06 23:28 36.66965 -104.63015 34155 ft 414 kts 294°
2026-05-06 23:29 36.70018 -104.69069 34159 ft 418 kts 302°
2026-05-06 23:29 36.73422 -104.74957 34181 ft 419 kts 302°
2026-05-06 23:30 36.76847 -104.80834 34203 ft 419 kts 302°
2026-05-06 23:30 36.80282 -104.86692 34261 ft 418 kts 302°
2026-05-06 23:31 36.83707 -104.92551 34263 ft 418 kts 303°
2026-05-06 23:31 36.87128 -104.98420 34227 ft 418 kts 303°
2026-05-06 23:32 36.90550 -105.04304 34227 ft 419 kts 303°
2026-05-06 23:32 36.93971 -105.10199 34189 ft 419 kts 303°
2026-05-06 23:33 36.97395 -105.16101 34189 ft 419 kts 303°
2026-05-06 23:33 37.00820 -105.22016 34157 ft 420 kts 304°
2026-05-06 23:34 37.04242 -105.27952 34151 ft 421 kts 304°
2026-05-06 23:34 37.07677 -105.33913 34137 ft 422 kts 304°
2026-05-06 23:35 37.11115 -105.39882 34116 ft 423 kts 304°
2026-05-06 23:35 37.14550 -105.45867 34122 ft 423 kts 304°
2026-05-06 23:36 37.17985 -105.51858 34123 ft 423 kts 306°
2026-05-06 23:36 37.21400 -105.57813 34120 ft 423 kts 305°
2026-05-06 23:37 37.24791 -105.63753 34201 ft 424 kts 305°
2026-05-06 23:37 37.26502 -105.66762 34084 ft 423 kts 306°
2026-05-06 23:37 37.28220 -105.69774 34126 ft 424 kts 306°
2026-05-06 23:38 37.31662 -105.75807 34136 ft 425 kts 306°
2026-05-06 23:38 37.35093 -105.81853 34145 ft 425 kts 306°
2026-05-06 23:39 37.38605 -105.87826 34147 ft 425 kts 308°
2026-05-06 23:39 37.42199 -105.93729 34148 ft 425 kts 308°
2026-05-06 23:40 37.45778 -105.99644 34047 ft 425 kts 308°
2026-05-06 23:40 37.49332 -106.05593 34065 ft 425 kts 308°
2026-05-06 23:41 37.52875 -106.11555 34079 ft 425 kts 308°
2026-05-06 23:41 37.56417 -106.17519 34111 ft 425 kts 309°
2026-05-06 23:42 37.59957 -106.23482 34130 ft 424 kts 309°
2026-05-06 23:42 37.63495 -106.29440 34146 ft 424 kts 309°
2026-05-06 23:43 37.67005 -106.35358 34106 ft 424 kts 311°
2026-05-06 23:43 37.70527 -106.41329 34110 ft 424 kts 310°
2026-05-06 23:44 37.74049 -106.47309 34116 ft 425 kts 311°
2026-05-06 23:44 37.77576 -106.53295 34113 ft 425 kts 311°
2026-05-06 23:45 37.81101 -106.59293 34100 ft 425 kts 311°
2026-05-06 23:45 37.84621 -106.65298 34093 ft 425 kts 311°
2026-05-06 23:46 37.88136 -106.71321 34062 ft 425 kts 312°
2026-05-06 23:46 37.91654 -106.77336 34084 ft 425 kts 313°
2026-05-06 23:47 37.95171 -106.83348 34082 ft 424 kts 313°
2026-05-06 23:47 37.98679 -106.89377 34093 ft 425 kts 313°
2026-05-06 23:48 38.02186 -106.95414 34103 ft 425 kts 313°
2026-05-06 23:48 38.05690 -107.01457 34112 ft 425 kts 313°
2026-05-06 23:49 38.09197 -107.07506 34083 ft 425 kts 313°
2026-05-06 23:49 38.12699 -107.13563 34103 ft 425 kts 313°
2026-05-06 23:50 38.16192 -107.19623 34127 ft 425 kts 313°
2026-05-06 23:50 38.21431 -107.28724 34124 ft 425 kts 313°
2026-05-06 23:51 38.24916 -107.34799 34126 ft 425 kts 313°
2026-05-06 23:51 38.28400 -107.40875 34108 ft 425 kts 313°
2026-05-06 23:52 38.31876 -107.46946 34115 ft 424 kts 313°
2026-05-06 23:52 38.35338 -107.53018 34114 ft 423 kts 312°
2026-05-06 23:53 38.38793 -107.59089 34113 ft 423 kts 312°
2026-05-06 23:53 38.42248 -107.65158 34094 ft 423 kts 312°
2026-05-06 23:54 38.45697 -107.71231 34098 ft 423 kts 312°
2026-05-06 23:54 38.49139 -107.77304 34059 ft 422 kts 312°
2026-05-06 23:55 38.52579 -107.83385 34185 ft 422 kts 312°
2026-05-06 23:55 38.56020 -107.89470 34185 ft 422 kts 312°
2026-05-06 23:56 38.59432 -107.95520 34182 ft 423 kts 312°
2026-05-06 23:56 38.62862 -108.01626 34178 ft 422 kts 312°
2026-05-06 23:57 38.66284 -108.07727 34152 ft 421 kts 312°
2026-05-06 23:57 38.69691 -108.13819 34173 ft 421 kts 312°
2026-05-06 23:58 38.73089 -108.19909 34165 ft 420 kts 312°
2026-05-06 23:58 38.76486 -108.25990 34146 ft 419 kts 312°
2026-05-06 23:59 38.79305 -108.31031 34144 ft 419 kts 312°
2026-05-06 23:59 38.82685 -108.37109 34127 ft 418 kts 312°
2026-05-07 00:00 38.86054 -108.43183 34094 ft 418 kts 311°
2026-05-07 00:00 38.89421 -108.49258 34100 ft 417 kts 312°
2026-05-07 00:01 38.92787 -108.55329 34111 ft 417 kts 312°
2026-05-07 00:01 38.96152 -108.61403 34123 ft 418 kts 311°
2026-05-07 00:02 38.99497 -108.67496 34153 ft 417 kts 311°
2026-05-07 00:02 39.02834 -108.73575 34148 ft 416 kts 311°
2026-05-07 00:03 39.06119 -108.79695 34049 ft 419 kts 306°
2026-05-07 00:03 39.08850 -108.86364 34063 ft 422 kts 304°
2026-05-07 00:04 39.11570 -108.93068 34067 ft 423 kts 304°
2026-05-07 00:04 39.14288 -108.99781 34074 ft 423 kts 304°
2026-05-07 00:05 39.17000 -109.06511 34079 ft 423 kts 304°
2026-05-07 00:05 39.19713 -109.13248 34066 ft 423 kts 304°
2026-05-07 00:06 39.22403 -109.19946 34073 ft 424 kts 304°
2026-05-07 00:06 39.25109 -109.26704 34094 ft 424 kts 304°
2026-05-07 00:07 39.27811 -109.33470 34114 ft 424 kts 304°
2026-05-07 00:07 39.30512 -109.40249 34124 ft 425 kts 304°
2026-05-07 00:08 39.33214 -109.47028 34095 ft 424 kts 304°
2026-05-07 00:08 39.35910 -109.53808 34122 ft 425 kts 304°
2026-05-07 00:09 39.38602 -109.60604 34131 ft 425 kts 303°
2026-05-07 00:09 39.41291 -109.67410 34139 ft 425 kts 303°
2026-05-07 00:10 39.43972 -109.74210 34148 ft 424 kts 303°
2026-05-07 00:10 39.46647 -109.81007 34115 ft 423 kts 303°
2026-05-07 00:11 39.49320 -109.87799 34121 ft 424 kts 303°
2026-05-07 00:11 39.51984 -109.94603 34116 ft 424 kts 303°
2026-05-07 00:12 39.54646 -110.01417 34113 ft 424 kts 303°
2026-05-07 00:12 39.57311 -110.08236 34101 ft 424 kts 303°
2026-05-07 00:13 39.59970 -110.15054 34091 ft 423 kts 303°
2026-05-07 00:13 39.62620 -110.21867 34078 ft 423 kts 303°
2026-05-07 00:14 39.65261 -110.28680 34094 ft 423 kts 303°
2026-05-07 00:14 39.67895 -110.35507 34081 ft 423 kts 303°
2026-05-07 00:15 39.69211 -110.38924 33937 ft 424 kts 303°
2026-05-07 00:15 39.70540 -110.42369 33030 ft 430 kts 303°
2026-05-07 00:15 39.71882 -110.45846 32267 ft 432 kts 303°
2026-05-07 00:15 39.73234 -110.49350 31409 ft 436 kts 302°
2026-05-07 00:16 39.74598 -110.52887 30564 ft 440 kts 302°
2026-05-07 00:16 39.75964 -110.56441 29961 ft 438 kts 302°
2026-05-07 00:16 39.77312 -110.59974 29350 ft 434 kts 302°
2026-05-07 00:16 39.78643 -110.63472 28762 ft 430 kts 302°
2026-05-07 00:17 39.79961 -110.66932 28169 ft 425 kts 302°
2026-05-07 00:17 39.81264 -110.70354 27593 ft 420 kts 302°
2026-05-07 00:17 39.82551 -110.73738 27021 ft 416 kts 302°
2026-05-07 00:17 39.83831 -110.77097 26460 ft 413 kts 302°
2026-05-07 00:18 39.85103 -110.80434 25884 ft 410 kts 302°
2026-05-07 00:18 39.86363 -110.83749 25332 ft 407 kts 301°
2026-05-07 00:18 39.87611 -110.87040 24772 ft 405 kts 301°
2026-05-07 00:18 39.88856 -110.90317 24237 ft 403 kts 301°
2026-05-07 00:19 39.90094 -110.93578 23707 ft 401 kts 301°
2026-05-07 00:19 39.91324 -110.96828 23115 ft 398 kts 301°
2026-05-07 00:19 39.92535 -111.00042 22616 ft 393 kts 301°
2026-05-07 00:19 39.93730 -111.03220 22124 ft 389 kts 301°
2026-05-07 00:20 39.94916 -111.06370 21642 ft 385 kts 301°
2026-05-07 00:20 39.96071 -111.09435 21194 ft 380 kts 301°
2026-05-07 00:20 39.97229 -111.12509 20723 ft 377 kts 301°
2026-05-07 00:20 39.98384 -111.15564 20240 ft 374 kts 301°
2026-05-07 00:21 39.99522 -111.18588 19784 ft 370 kts 300°
2026-05-07 00:21 40.00651 -111.21593 19300 ft 368 kts 300°
2026-05-07 00:21 40.01772 -111.24585 18817 ft 366 kts 300°
2026-05-07 00:21 40.02889 -111.27563 18290 ft 364 kts 300°
2026-05-07 00:22 40.04009 -111.30539 17592 ft 366 kts 300°
2026-05-07 00:22 40.05126 -111.33516 17088 ft 364 kts 300°
2026-05-07 00:22 40.06227 -111.36469 16584 ft 360 kts 300°
2026-05-07 00:22 40.07316 -111.39403 16071 ft 358 kts 300°
2026-05-07 00:23 40.08397 -111.42320 15579 ft 355 kts 299°
2026-05-07 00:23 40.09456 -111.45170 15418 ft 342 kts 300°
2026-05-07 00:23 40.10472 -111.47911 15297 ft 329 kts 300°
2026-05-07 00:23 40.11447 -111.50545 15170 ft 316 kts 300°
2026-05-07 00:24 40.12390 -111.53089 15034 ft 307 kts 300°
2026-05-07 00:24 40.13306 -111.55570 14893 ft 300 kts 299°
2026-05-07 00:24 40.14176 -111.58052 14769 ft 300 kts 298°
2026-05-07 00:24 40.15017 -111.60542 14573 ft 299 kts 297°
2026-05-07 00:25 40.15844 -111.63025 14381 ft 298 kts 297°
2026-05-07 00:25 40.16670 -111.65505 14183 ft 296 kts 299°
2026-05-07 00:25 40.17739 -111.67768 13990 ft 291 kts 313°
2026-05-07 00:25 40.19179 -111.69604 13735 ft 289 kts 320°
2026-05-07 00:26 40.20660 -111.71372 13466 ft 288 kts 320°
2026-05-07 00:26 40.22136 -111.73140 13208 ft 287 kts 320°
2026-05-07 00:26 40.23610 -111.74907 12949 ft 287 kts 319°
2026-05-07 00:26 40.25079 -111.76672 12686 ft 286 kts 319°
2026-05-07 00:27 40.26539 -111.78425 12433 ft 285 kts 320°
2026-05-07 00:27 40.28004 -111.80179 12180 ft 286 kts 319°
2026-05-07 00:27 40.29468 -111.81929 12021 ft 285 kts 320°
2026-05-07 00:27 40.30912 -111.83659 12007 ft 278 kts 320°
2026-05-07 00:28 40.32294 -111.85325 12002 ft 263 kts 320°
2026-05-07 00:28 40.33626 -111.86929 12004 ft 258 kts 320°
2026-05-07 00:28 40.35064 -111.88290 12001 ft 252 kts 335°
2026-05-07 00:28 40.36658 -111.89244 11996 ft 253 kts 338°
2026-05-07 00:29 40.38269 -111.90190 11994 ft 253 kts 337°
2026-05-07 00:29 40.39875 -111.91141 11830 ft 255 kts 337°
2026-05-07 00:30 40.44785 -111.93577 10711 ft 253 kts 354°
2026-05-07 00:30 40.46509 -111.93770 10290 ft 242 kts 357°
2026-05-07 00:30 40.48135 -111.93931 9976 ft 231 kts 356°
2026-05-07 00:30 40.49718 -111.94108 9667 ft 223 kts 355°
2026-05-07 00:31 40.51210 -111.94280 9397 ft 206 kts 355°
2026-05-07 00:31 40.52581 -111.94438 9114 ft 192 kts 355°
2026-05-07 00:31 40.53880 -111.94587 8855 ft 183 kts 355°
2026-05-07 00:31 40.55122 -111.94730 8610 ft 176 kts 355°
2026-05-07 00:32 40.56316 -111.94868 8374 ft 170 kts 354°
2026-05-07 00:32 40.57476 -111.95001 8157 ft 166 kts 354°
2026-05-07 00:32 40.58613 -111.95132 7937 ft 164 kts 354°
2026-05-07 00:32 40.59758 -111.95265 7729 ft 166 kts 354°
2026-05-07 00:33 40.60917 -111.95398 7511 ft 168 kts 354°
2026-05-07 00:33 40.62073 -111.95531 7303 ft 167 kts 353°
2026-05-07 00:33 40.63240 -111.95666 7093 ft 169 kts 354°
2026-05-07 00:33 40.64412 -111.95802 6864 ft 169 kts 353°
2026-05-07 00:34 40.65588 -111.95938 6645 ft 170 kts 353°
2026-05-07 00:34 40.66768 -111.96074 6421 ft 171 kts 352°
2026-05-07 00:34 40.67943 -111.96210 6200 ft 168 kts 353°
2026-05-07 00:34 40.69104 -111.96344 5968 ft 167 kts 352°
2026-05-07 00:35 40.70259 -111.96477 5765 ft 167 kts 353°
2026-05-07 00:35 40.71380 -111.96606 5538 ft 156 kts 353°
2026-05-07 00:35 40.72416 -111.96726 5308 ft 152 kts 353°
2026-05-07 00:35 40.73480 -111.96853 5094 ft 151 kts 354°
2026-05-07 00:36 40.74519 -111.96980 4893 ft 150 kts 358°
2026-05-07 00:36 40.75557 -111.97093 4683 ft 149 kts 355°
2026-05-07 00:36 40.76612 -111.97218 4452 ft 153 kts 354°
2026-05-07 00:36 40.77651 -111.97336 4295 ft 147 kts 353°
2026-05-07 00:37 40.78564 -111.97450 4231 ft 108 kts 355°
2026-05-07 00:37 40.79082 -111.97506 4232 ft 58 kts 355°
2026-05-07 00:37 40.79379 -111.97548 4229 ft 33 kts 350°
2026-05-07 00:37 40.79542 -111.97661 4229 ft 18 kts 317°
2026-05-07 00:38 40.79517 -111.97765 4230 ft 14 kts 205°
2026-05-07 00:38 40.79428 -111.97763 4230 ft 13 kts 173°
2026-05-07 00:38 40.79330 -111.97752 4231 ft 15 kts 176°
2026-05-07 00:38 40.79223 -111.97737 4231 ft 16 kts 174°
2026-05-07 00:39 40.79108 -111.97722 4231 ft 17 kts 174°
2026-05-07 00:39 40.78987 -111.97709 4231 ft 18 kts 175°
2026-05-07 00:39 40.78861 -111.97693 4231 ft 19 kts 174°
2026-05-07 00:39 40.78768 -111.97709 4231 ft 11 kts 228°
2026-05-07 00:40 40.78751 -111.97814 4231 ft 13 kts 265°
2026-05-07 00:40 40.78741 -111.97926 4230 ft 9 kts 248°
2026-05-07 00:40 40.78721 -111.97937 4231 ft 2 kts 175°
2026-05-07 00:40 40.78696 -111.97934 4231 ft 6 kts 175°
2026-05-07 00:41 40.78664 -111.97931 4231 ft 1 kts 175°
2026-05-07 00:41 40.78662 -111.97931 4231 ft 0 kts 175°